K5AJS-2 Weather Reports


time (UTC)temp
C
wind
direction
speed
KPH
gust
KPH
rain 1hr
cm
rain 24hr
cm
rain mn
cm
humidity
%
barometer
mb
20260510142411 26 103 1.6 3.2 0.00 0.00 0.00 85 1013.3
20260510141910 26 100 1.6 1.6 0.00 0.00 0.00 86 1013.2
20260510141412 26 142 1.6 3.2 0.00 0.00 0.00 86 1013.2
20260510140910 25 106 1.6 3.2 0.00 0.00 0.00 87 1013.1
20260510140411 25 61 3.2 11.3 0.00 0.00 0.00 87 1013.2
20260510135911 25 90 1.6 3.2 0.00 0.00 0.00 87 1013.0
20260510135410 25 87 1.6 4.8 0.00 0.00 0.00 87 1012.9
20260510134910 25 90 11.3 17.7 0.00 0.00 0.00 87 1012.8
20260510134410 25 347 6.4 9.7 0.00 0.00 0.00 87 1012.8
20260510133910 25 99 4.8 14.5 0.00 0.00 0.00 88 1012.8
20260510133411 25 109 6.4 9.7 0.00 0.00 0.00 87 1012.7
20260510132910 25 105 4.8 8.0 0.00 0.00 0.00 87 1012.6
20260510132410 25 117 1.6 3.2 0.00 0.00 0.00 88 1012.5
20260510131910 25 85 1.6 1.6 0.00 0.00 0.00 88 1012.5
20260510131410 25 86 1.6 3.2 0.00 0.00 0.00 88 1012.4
20260510130910 25 86 3.2 3.2 0.00 0.00 0.00 88 1012.3
20260510130413 25 86 3.2 3.2 0.00 0.00 0.00 89 1012.2
20260510125911 25 86 3.2 3.2 0.00 0.00 0.00 89 1012.0
20260510125410 25 87 3.2 3.2 0.00 0.00 0.00 90 1011.9
20260510124911 25 174 4.8 9.7 0.00 0.00 0.00 90 1011.8
20260510124412 25 86 1.6 1.6 0.00 0.00 0.00 91 1011.8
20260510123910 25 110 1.6 1.6 0.00 0.00 0.00 91 1011.7
20260510123411 25 46 8.0 14.5 0.00 0.00 0.00 91 1011.7
20260510122911 25 134 1.6 1.6 0.00 0.00 0.00 91 1011.6
20260510122410 25 127 1.6 1.6 0.00 0.00 0.00 92 1011.6
20260510121910 24 118 1.6 1.6 0.00 0.00 0.00 92 1011.5
20260510121411 24 187 4.8 11.3 0.00 0.00 0.00 92 1011.5
20260510120910 24 104 1.6 1.6 0.00 0.00 0.00 92 1011.5
20260510120410 24 52 3.2 4.8 0.00 0.00 0.00 92 1011.4
20260510115911 24 136 1.6 1.6 0.00 0.00 0.00 92 1011.3
20260510115411 24 105 1.6 1.6 0.00 0.00 0.00 92 1011.2
20260510114911 24 78 1.6 1.6 0.00 0.00 0.00 91 1011.1
20260510114411 24 98 1.6 1.6 0.00 0.00 0.00 91 1011.1
20260510113913 24 253 1.6 3.2 0.00 0.00 0.00 91 1011.1
20260510113411 24 250 3.2 3.2 0.00 0.00 0.00 91 1011.1
20260510112911 24 257 1.6 3.2 0.00 0.00 0.00 91 1011.1
20260510112410 24 3 1.6 3.2 0.00 0.00 0.00 91 1011.1
20260510111910 24 263 1.6 3.2 0.00 0.00 0.00 91 1011.1
20260510111411 24 264 3.2 4.8 0.00 0.00 0.00 91 1011.1
20260510110910 24 249 3.2 4.8 0.00 0.00 0.00 91 1011.1
20260510110411 25 160 1.6 1.6 0.00 0.00 0.00 91 1011.1
20260510105911 25 95 0.0 0.0 0.00 0.00 0.00 91 1011.1
20260510105410 25 156 1.6 1.6 0.00 0.00 0.00 91 1011.1
20260510104911 25 147 3.2 3.2 0.00 0.00 0.00 91 1011.0
20260510104411 25 114 0.0 1.6 0.00 0.00 0.00 91 1011.1
20260510103910 24 126 1.6 1.6 0.00 0.00 0.00 91 1011.0
20260510103410 24 116 3.2 3.2 0.00 0.00 0.00 91 1010.9
20260510102910 25 142 1.6 3.2 0.00 0.00 0.00 91 1010.9
20260510102410 25 111 1.6 1.6 0.00 0.00 0.00 91 1011.0
20260510101910 25 157 1.6 3.2 0.00 0.00 0.00 91 1011.0
20260510101410 25 154 1.6 3.2 0.00 0.00 0.00 91 1011.0
20260510100910 25 334 6.4 11.3 0.00 0.00 0.00 91 1011.0
20260510100410 25 136 1.6 3.2 0.00 0.00 0.00 91 1011.0
20260510095911 25 151 0.0 1.6 0.00 0.00 0.00 91 1011.0
20260510095410 25 133 1.6 1.6 0.00 0.00 0.00 91 1011.0
20260510094910 25 131 0.0 1.6 0.00 0.00 0.00 91 1011.0
20260510094410 24 132 1.6 1.6 0.00 0.00 0.00 91 1011.0
20260510093911 24 134 0.0 1.6 0.00 0.00 0.00 91 1011.0
20260510093410 24 134 0.0 1.6 0.00 0.00 0.00 92 1011.0
20260510092911 24 134 1.6 1.6 0.00 0.00 0.00 92 1011.0
20260510092410 24 143 1.6 1.6 0.00 0.00 0.00 92 1011.0
20260510091910 24 139 1.6 1.6 0.00 0.00 0.00 92 1011.0
20260510091410 24 144 1.6 1.6 0.00 0.00 0.00 92 1011.0
20260510090910 24 144 1.6 1.6 0.00 0.00 0.00 92 1010.9
20260510090411 24 139 1.6 1.6 0.00 0.00 0.00 92 1010.9
20260510085910 24 6 1.6 1.6 0.00 0.00 0.00 92 1010.9
20260510085411 24 135 1.6 1.6 0.00 0.00 0.00 91 1010.9
20260510084910 24 137 1.6 3.2 0.00 0.00 0.00 91 1010.8
20260510084410 24 145 3.2 3.2 0.00 0.00 0.00 91 1010.8
20260510083916 24 144 3.2 3.2 0.00 0.00 0.00 91 1010.8
20260510083410 24 144 3.2 3.2 0.00 0.00 0.00 91 1010.7
20260510082911 24 165 4.8 11.3 0.00 0.00 0.00 91 1010.8
20260510082410 24 145 3.2 3.2 0.00 0.00 0.00 91 1010.8
20260510081911 24 139 3.2 3.2 0.00 0.00 0.00 91 1010.7
20260510081411 25 131 3.2 3.2 0.00 0.00 0.00 91 1010.6
20260510080910 25 126 1.6 3.2 0.00 0.00 0.00 91 1010.6
20260510080410 25 126 3.2 4.8 0.00 0.00 0.00 91 1010.6
20260510075912 25 225 4.8 6.4 0.00 0.00 0.00 90 1010.7
20260510075411 25 228 4.8 6.4 0.00 0.00 0.00 90 1010.8
20260510074912 25 230 3.2 8.0 0.00 0.00 0.00 90 1010.7
20260510074410 25 95 1.6 3.2 0.00 0.00 0.00 90 1010.7
20260510073911 25 84 1.6 3.2 0.00 0.00 0.00 90 1010.7
20260510073411 25 204 3.2 8.0 0.00 0.00 0.00 89 1010.7
20260510072911 24 86 1.6 3.2 0.00 0.00 0.00 89 1010.8
20260510072410 25 118 3.2 3.2 0.00 0.00 0.00 89 1010.7
20260510071912 25 118 3.2 11.3 0.00 0.00 0.00 89 1010.7
20260510071411 25 99 3.2 8.0 0.00 0.00 0.00 89 1010.8
20260510070911 25 107 3.2 8.0 0.00 0.00 0.00 89 1010.8
20260510070411 25 115 1.6 6.4 0.00 0.00 0.00 89 1010.9
20260510065910 24 134 1.6 6.4 0.00 0.00 0.00 88 1011.1
20260510065412 24 114 3.2 9.7 0.00 0.00 0.00 88 1011.1
20260510064911 24 124 1.6 6.4 0.00 0.00 0.00 88 1011.1
20260510064410 24 97 1.6 1.6 0.00 0.00 0.00 88 1011.0
20260510063911 24 126 1.6 1.6 0.00 0.00 0.00 88 1011.0
20260510063410 24 159 3.2 4.8 0.00 0.00 0.00 87 1011.1
20260510062910 24 132 1.6 1.6 0.00 0.00 0.00 87 1011.3
20260510062411 25 93 1.6 3.2 0.00 0.00 0.00 87 1011.3
20260510061910 25 148 1.6 8.0 0.00 0.00 0.00 87 1011.4
20260510061411 25 89 1.6 3.2 0.00 0.00 0.00 86 1011.5
20260510060911 25 229 3.2 4.8 0.00 0.00 0.00 86 1011.5
20260510060410 25 240 4.8 8.0 0.00 0.00 0.00 86 1011.7
20260510055910 25 218 1.6 6.4 0.00 0.00 0.00 85 1011.7
20260510055410 25 157 4.8 9.7 0.00 0.00 0.00 85 1011.7
20260510054911 25 198 3.2 8.0 0.00 0.00 0.00 85 1011.8
20260510054411 25 190 3.2 6.4 0.00 0.00 0.00 84 1011.8
20260510053910 25 173 3.2 6.4 0.00 0.00 0.00 84 1011.8
20260510053410 25 153 1.6 3.2 0.00 0.00 0.00 84 1011.8
20260510052910 25 202 3.2 8.0 0.00 0.00 0.00 84 1011.8
20260510052410 25 236 6.4 9.7 0.00 0.00 0.00 84 1011.7
20260510051911 25 243 8.0 9.7 0.00 0.00 0.00 84 1011.7
20260510051410 25 238 6.4 9.7 0.00 0.00 0.00 84 1011.6
20260510050911 25 240 6.4 9.7 0.00 0.00 0.00 84 1011.5
20260510050411 25 235 6.4 8.0 0.00 0.00 0.00 84 1011.4
20260510045911 25 197 6.4 11.3 0.00 0.00 0.13 83 1011.4
20260510045410 25 217 9.7 11.3 0.00 0.00 0.13 83 1011.4
20260510044910 25 211 4.8 14.5 0.00 0.00 0.13 83 1011.4
20260510044410 25 162 1.6 1.6 0.00 0.00 0.13 82 1011.4
20260510043910 25 155 1.6 1.6 0.00 0.00 0.13 81 1011.4
20260510043411 25 157 1.6 1.6 0.00 0.00 0.13 81 1011.3
20260510042910 25 155 1.6 3.2 0.00 0.00 0.13 81 1011.2
20260510042410 25 156 1.6 3.2 0.00 0.00 0.13 81 1011.2
20260510041910 25 158 1.6 3.2 0.00 0.00 0.13 82 1011.3
20260510041411 25 154 1.6 3.2 0.00 0.00 0.13 82 1011.4
20260510040910 25 149 3.2 4.8 0.00 0.00 0.13 83 1011.4
20260510040411 25 171 3.2 3.2 0.00 0.00 0.13 84 1011.5
20260510035911 25 171 3.2 6.4 0.00 0.00 0.13 85 1011.6
20260510035410 25 152 1.6 3.2 0.00 0.00 0.13 85 1011.4
20260510034910 25 94 1.6 3.2 0.00 0.00 0.13 85 1011.2
20260510034411 25 122 1.6 3.2 0.00 0.00 0.13 84 1011.3
20260510033910 25 88 1.6 3.2 0.00 0.00 0.13 83 1011.0
20260510033410 25 88 1.6 3.2 0.00 0.00 0.13 82 1010.8
20260510032910 25 113 1.6 3.2 0.00 0.00 0.13 82 1010.6
20260510032411 25 174 3.2 3.2 0.00 0.00 0.13 81 1010.4
20260510031910 25 174 1.6 3.2 0.00 0.00 0.13 82 1010.2
20260510031410 25 174 3.2 3.2 0.00 0.00 0.13 81 1010.2
20260510030910 25 172 1.6 3.2 0.00 0.00 0.13 81 1010.4
20260510030411 25 175 1.6 3.2 0.00 0.00 0.13 81 1010.3
20260510025910 25 166 1.6 3.2 0.00 0.00 0.13 81 1010.4
20260510025411 25 165 1.6 3.2 0.00 0.00 0.13 81 1010.3
20260510024910 25 150 1.6 1.6 0.00 0.00 0.13 81 1010.2
20260510024411 25 153 1.6 1.6 0.00 0.00 0.13 81 1010.1
20260510023910 25 149 1.6 1.6 0.00 0.00 0.13 79 1010.0
20260510023410 25 143 1.6 3.2 0.00 0.00 0.13 79 1010.1
20260510022910 25 129 1.6 9.7 0.00 0.00 0.13 78 1010.1
20260510022410 25 122 6.4 11.3 0.00 0.00 0.13 79 1010.1
20260510021911 25 129 3.2 11.3 0.00 0.00 0.13 78 1010.0
20260510021411 25 113 3.2 6.4 0.00 0.00 0.13 79 1009.8
20260510020911 25 98 3.2 6.4 0.00 0.00 0.13 79 1009.6
20260510020411 26 109 1.6 6.4 0.00 0.00 0.13 79 1009.5
20260510015910 26 105 1.6 3.2 0.00 0.00 0.13 79 1009.5
20260510015412 26 95 3.2 11.3 0.00 0.00 0.13 77 1009.4
20260510014911 26 86 1.6 3.2 0.00 0.00 0.13 76 1009.3
20260510014411 26 86 1.6 3.2 0.00 0.00 0.13 74 1009.2
20260510013911 26 98 1.6 6.4 0.00 0.00 0.13 73 1009.2
20260510013411 26 175 3.2 8.0 0.00 0.00 0.13 72 1009.1
20260510012912 26 149 1.6 4.8 0.00 0.00 0.13 73 1009.0
20260510012411 26 228 6.4 12.9 0.00 0.00 0.13 74 1008.8
20260510011911 26 228 6.4 12.9 0.00 0.00 0.13 73 1008.8
20260510011411 26 120 4.8 12.9 0.00 0.00 0.13 70 1008.8
20260510010910 26 155 1.6 6.4 0.00 0.00 0.13 68 1009.0
20260510010414 26 184 3.2 6.4 0.00 0.00 0.13 66 1008.8
20260510005911 27 268 1.6 3.2 0.00 0.00 0.13 64 1008.8
20260510005411 27 258 1.6 3.2 0.00 0.00 0.13 62 1008.9
20260510004910 27 266 1.6 3.2 0.00 0.00 0.13 58 1008.9
20260510004410 27 289 1.6 3.2 0.00 0.00 0.13 56 1009.0
20260510003911 28 268 1.6 3.2 0.00 0.00 0.13 56 1009.0
20260510003411 28 267 1.6 3.2 0.00 0.00 0.13 55 1008.9
20260510002911 28 267 1.6 3.2 0.00 0.00 0.13 55 1008.9
20260510002410 28 227 1.6 3.2 0.00 0.00 0.13 54 1008.9
20260510001910 28 241 1.6 3.2 0.00 0.00 0.13 54 1008.8
20260510001412 28 282 3.2 4.8 0.00 0.00 0.13 52 1008.8
20260510000910 28 210 3.2 6.4 0.00 0.00 0.13 50 1008.8
20260510000411 28 231 3.2 8.0 0.00 0.00 0.13 52 1008.8
20260509235910 28 242 3.2 6.4 0.00 0.00 0.13 52 1008.7
20260509235410 28 237 3.2 9.7 0.00 0.00 0.13 51 1008.7
20260509234910 29 225 3.2 6.4 0.00 0.00 0.13 55 1008.6
20260509234410 29 237 4.8 8.0 0.00 0.00 0.13 53 1008.7
20260509233911 29 275 4.8 11.3 0.00 0.00 0.13 56 1008.7
20260509233410 29 245 3.2 4.8 0.00 0.00 0.13 56 1008.7
20260509232910 30 264 3.2 4.8 0.00 0.00 0.13 50 1008.7
20260509232410 30 265 3.2 3.2 0.00 0.00 0.13 48 1008.7
20260509231911 30 263 3.2 3.2 0.00 0.00 0.13 51 1008.7
20260509231410 30 265 3.2 3.2 0.00 0.00 0.13 52 1008.7
20260509230911 30 267 3.2 6.4 0.00 0.00 0.13 52 1008.6
20260509230410 30 274 3.2 4.8 0.00 0.00 0.13 53 1008.6
20260509225910 30 268 3.2 6.4 0.00 0.00 0.13 53 1008.6
20260509225410 30 251 1.6 11.3 0.00 0.00 0.13 53 1008.6
20260509224910 30 269 1.6 3.2 0.00 0.00 0.13 53 1008.7
20260509224412 30 265 3.2 4.8 0.00 0.00 0.13 53 1008.5
20260509223911 30 265 3.2 4.8 0.00 0.00 0.13 53 1008.5
20260509223410 30 263 4.8 9.7 0.00 0.00 0.13 53 1008.6
20260509222910 30 265 3.2 4.8 0.00 0.00 0.13 53 1008.5
20260509222410 30 264 3.2 4.8 0.00 0.00 0.13 53 1008.5
20260509221911 30 246 3.2 4.8 0.00 0.00 0.13 53 1008.6
20260509221411 30 259 3.2 9.7 0.00 0.00 0.13 52 1008.4
20260509220910 30 259 3.2 12.9 0.00 0.00 0.13 52 1008.5
20260509220410 30 264 8.0 17.7 0.00 0.00 0.13 52 1008.4
20260509215911 30 275 3.2 9.7 0.00 0.00 0.13 53 1008.4
20260509215410 30 268 8.0 16.1 0.00 0.00 0.13 53 1008.4
20260509214910 30 264 6.4 14.5 0.00 0.00 0.13 54 1008.4
20260509214411 30 258 3.2 6.4 0.00 0.00 0.13 53 1008.4
20260509213910 30 267 4.8 11.3 0.00 0.00 0.13 52 1008.4
20260509213410 30 269 6.4 12.9 0.00 0.00 0.13 54 1008.4
20260509212910 30 264 4.8 11.3 0.00 0.00 0.13 53 1008.4
20260509212411 30 266 6.4 14.5 0.00 0.00 0.13 54 1008.3
20260509211911 30 272 3.2 9.7 0.00 0.00 0.13 53 1008.4
20260509211410 30 269 8.0 16.1 0.00 0.00 0.13 53 1008.3
20260509210911 30 275 3.2 6.4 0.00 0.00 0.13 53 1008.4
20260509210410 30 256 3.2 4.8 0.00 0.00 0.13 53 1008.4
20260509205911 30 265 3.2 8.0 0.00 0.00 0.13 53 1008.4
20260509205411 31 264 9.7 16.1 0.00 0.00 0.13 54 1008.5
20260509204910 31 273 6.4 17.7 0.00 0.00 0.13 52 1008.5
20260509204411 31 279 3.2 8.0 0.00 0.00 0.13 47 1008.3
20260509203910 31 339 4.8 9.7 0.00 0.00 0.13 47 1008.4
20260509203410 31 310 9.7 16.1 0.00 0.00 0.13 48 1008.4
20260509202911 31 273 6.4 14.5 0.00 0.00 0.13 47 1008.4
20260509202410 31 267 6.4 9.7 0.00 0.00 0.13 48 1008.7
20260509201912 32 268 4.8 8.0 0.00 0.00 0.13 47 1008.6
20260509201410 32 266 8.0 11.3 0.00 0.00 0.13 43 1008.6
20260509200910 31 262 8.0 12.9 0.00 0.00 0.13 45 1008.7
20260509200410 31 264 8.0 11.3 0.00 0.00 0.13 45 1008.8
20260509195910 31 268 4.8 9.7 0.00 0.00 0.13 46 1008.9
20260509195411 31 250 9.7 16.1 0.00 0.00 0.13 49 1008.8
20260509194910 31 337 8.0 12.9 0.00 0.00 0.13 42 1008.8
20260509194411 31 317 8.0 14.5 0.00 0.00 0.13 49 1008.9
20260509193911 31 269 6.4 8.0 0.00 0.00 0.13 47 1009.0
20260509193410 31 266 3.2 6.4 0.00 0.00 0.13 50 1009.0
20260509192910 31 269 4.8 9.7 0.00 0.00 0.13 50 1009.0
20260509192411 31 267 4.8 9.7 0.00 0.00 0.13 48 1009.2
20260509191911 30 264 4.8 9.7 0.00 0.00 0.13 50 1009.2
20260509191411 30 263 4.8 8.0 0.00 0.00 0.13 51 1009.2
20260509190910 31 147 3.2 6.4 0.00 0.00 0.13 50 1009.2
20260509190410 31 214 3.2 8.0 0.00 0.00 0.13 47 1009.2
20260509185911 30 254 4.8 8.0 0.00 0.00 0.13 46 1009.2
20260509185410 30 260 6.4 9.7 0.00 0.00 0.13 48 1009.2
20260509184910 30 262 3.2 8.0 0.00 0.00 0.13 48 1009.3
20260509184410 30 267 3.2 11.3 0.00 0.00 0.13 50 1009.3
20260509183910 30 260 4.8 6.4 0.00 0.00 0.13 51 1009.2
20260509183410 30 266 3.2 4.8 0.00 0.00 0.13 50 1009.2
20260509182910 30 265 3.2 4.8 0.00 0.00 0.13 52 1009.4
20260509182411 30 263 3.2 6.4 0.00 0.00 0.13 51 1009.3
20260509181911 29 263 6.4 9.7 0.00 0.00 0.13 56 1009.4
20260509181410 30 279 4.8 9.7 0.00 0.00 0.13 54 1009.3
20260509180910 29 342 4.8 8.0 0.00 0.00 0.13 56 1009.3
20260509180411 29 293 4.8 9.7 0.00 0.00 0.13 58 1009.5
20260509175911 29 319 4.8 11.3 0.00 0.00 0.13 58 1009.6
20260509175411 28 38 1.6 8.0 0.00 0.00 0.13 59 1009.6
20260509174910 28 26 3.2 4.8 0.00 0.00 0.13 57 1009.6
20260509174411 28 62 1.6 6.4 0.00 0.00 0.13 61 1009.8
20260509173910 28 131 1.6 3.2 0.00 0.00 0.13 64 1009.5
20260509173411 28 137 1.6 3.2 0.00 0.00 0.13 65 1009.4
20260509172910 27 129 1.6 3.2 0.00 0.00 0.13 65 1009.4
20260509172410 27 114 1.6 9.7 0.00 0.00 0.13 68 1009.5
20260509171911 27 126 1.6 1.6 0.00 0.00 0.13 68 1009.6
20260509171411 27 123 1.6 1.6 0.00 0.00 0.13 68 1009.8
20260509170911 27 206 1.6 4.8 0.00 0.00 0.13 70 1009.8
20260509170411 27 110 1.6 1.6 0.00 0.00 0.13 70 1009.6
20260509165911 27 120 1.6 3.2 0.00 0.00 0.13 71 1010.0
20260509165410 27 126 1.6 3.2 0.00 0.00 0.13 72 1010.1
20260509164911 26 125 3.2 3.2 0.00 0.00 0.13 73 1010.0
20260509164411 26 125 1.6 3.2 0.00 0.00 0.13 74 1010.1
20260509163910 26 123 1.6 1.6 0.00 0.00 0.13 75 1010.2
20260509163411 26 124 1.6 1.6 0.00 0.00 0.13 75 1009.9
20260509162911 26 127 1.6 1.6 0.00 0.00 0.13 76 1009.9
20260509162410 26 122 3.2 3.2 0.00 0.00 0.13 76 1009.8
20260509161910 26 118 1.6 1.6 0.00 0.00 0.13 75 1009.8
20260509161411 26 119 1.6 3.2 0.00 0.00 0.13 75 1009.8
20260509160911 25 124 3.2 3.2 0.00 0.00 0.13 75 1009.9
20260509160411 25 120 1.6 1.6 0.00 0.00 0.13 78 1009.8
20260509155911 25 121 1.6 1.6 0.00 0.00 0.13 78 1009.7
20260509155410 25 128 1.6 1.6 0.00 0.00 0.13 80 1009.8
20260509154910 25 97 1.6 1.6 0.00 0.00 0.13 80 1009.7
20260509154410 25 130 1.6 1.6 0.00 0.00 0.13 80 1009.9
20260509153911 25 159 1.6 1.6 0.00 0.00 0.13 79 1010.0
20260509153411 25 130 1.6 1.6 0.00 0.00 0.13 78 1010.2
20260509152911 25 129 1.6 1.6 0.00 0.00 0.13 77 1010.0
20260509152411 25 130 1.6 1.6 0.00 0.00 0.13 77 1010.6
20260509151910 25 130 1.6 3.2 0.00 0.00 0.13 76 1010.6
20260509151410 25 141 1.6 3.2 0.00 0.00 0.13 77 1010.4
20260509150911 25 131 1.6 3.2 0.00 0.00 0.13 77 1010.8
20260509150410 25 133 1.6 1.6 0.00 0.00 0.13 78 1010.6
20260509145911 25 248 9.7 19.3 0.00 0.00 0.13 79 1010.7
20260509145410 25 234 6.4 8.0 0.00 0.00 0.13 79 1010.5
20260509144910 25 180 3.2 12.9 0.00 0.00 0.13 77 1010.5
20260509144410 25 184 6.4 14.5 0.00 0.00 0.13 80 1010.3
20260509143910 25 259 12.9 17.7 0.00 0.00 0.13 79 1010.2
20260509143411 25 259 14.5 17.7 0.00 0.00 0.13 80 1010.2
20260509142911 24 260 8.0 12.9 0.00 0.00 0.13 83 1010.3